Location: Deep Valley
(39.7548°N, 80.4695°W)
Time: 17:42:29
(UTC+00:00)

ISS - Visible Passes

Search period start: 25 November 2020 00:00
Search period end: 05 December 2020 00:00
Orbit: 418 x 421 km, 51.6° (Epoch: 25 November)

Date Brightness Start Highest point End Pass type
(mag) Time Alt. Az. Time Alt. Az. Time Alt. Az.
25 Nov -2.2 22:33:21 10° W 22:36:20 29° NNW 22:39:19 10° NE visible
26 Nov -0.7 00:12:39 10° NNW 00:12:47 10° NNW 00:12:47 10° NNW visible
26 Nov -1.4 23:24:27 10° NW 23:26:14 14° NNW 23:27:11 12° N visible
27 Nov -1.5 22:36:16 10° WNW 22:38:30 16° NNW 22:40:44 10° NNE visible
28 Nov -1.2 23:27:33 10° NNW 23:28:36 11° N 23:28:53 11° N visible
29 Nov -1.3 22:39:27 10° NNW 22:40:48 12° N 22:42:08 10° NNE visible
30 Nov -1.3 23:29:36 10° NNW 23:30:34 12° N 23:30:34 12° N visible
01 Dec -1.3 22:42:04 10° NNW 22:43:07 11° N 22:44:10 10° NNE visible
02 Dec -1.6 23:30:56 10° NNW 23:32:23 15° N 23:32:23 15° N visible
03 Dec -1.6 22:43:36 10° NNW 22:45:22 14° NNE 22:46:54 11° NE visible
04 Dec -0.8 00:19:37 10° NW 00:19:52 12° NW 00:19:52 12° NW visible
04 Dec -2.4 23:32:12 10° NW 23:34:29 26° N 23:34:29 26° N visible
